Date String (YYYY-MM-DD hh:mm:ss) UTC,Instrument flags,absolute air pressure of the measurement (hPa),sample flow rate (lpm),inlet stack bypass flow (lpm),air temperature of the measurement (°C),ambient temperature measured by the external sensor (°C),aerosol sample conditioner tube jacket temperature (°C),OPC LED temperature (°C),internal box temperature (°C),relative humidity of the measurement (%),span deviation,mass concentration of particles derived from Lorenz-Mie calculation of OPC scattering (μg/m³),mass concentration of particles derived from Lorenz-Mie calculation of OPC scattering (μg/m³),mass concentration of particles derived from Lorenz-Mie calculation of OPC scattering (μg/m³)
DateTimeUTC,F1_M11,P_M11,Q1_M11,Q2_M11,T1_M11,T2_M11,T3_M11,T4_M11,T5_M11,U1_M11,ZSPAN_M11,X0_M11,X2_M11,X1_M11
2023-10-09 08:00:00,SystemResetWarning,0831.1,5.00,000.00,029.0,027.4,000.0,037.5,030.6,12.3,0000.0,0011.89,0003.31,0002.19
2023-10-09 08:01:00,SystemResetWarning,0831.2,5.00,000.00,029.0,027.4,000.0,037.4,030.5,12.3,0000.0,0011.08,0003.29,0002.19
2023-10-09 08:02:00,SystemResetWarning,0831.1,5.00,000.00,029.0,027.4,000.0,037.4,030.5,12.2,0000.0,0011.51,0003.29,0002.19
2023-10-09 08:03:00,SystemResetWarning,0831.1,5.00,000.00,029.0,027.4,000.0,037.5,030.5,12.2,0000.0,0011.95,0003.25,0002.20
2023-10-09 08:04:00,SystemResetWarning,0831.2,4.99,000.00,029.0,027.4,000.0,037.4,030.5,12.2,0000.0,0011.96,0003.25,0002.22
2023-10-09 08:05:00,SystemResetWarning,0831.1,5.00,000.00,029.0,027.4,000.0,037.4,030.5,12.2,0000.0,0011.75,0003.27,0002.23
2023-10-09 08:06:00,SystemResetWarning,0831.1,5.01,000.00,029.0,027.4,000.0,037.4,030.5,12.2,0000.0,0011.99,0003.24,0002.24
2023-10-09 08:07:00,SystemResetWarning,0831.1,5.00,000.00,029.0,027.4,000.0,037.4,030.5,12.2,0000.0,0012.11,0003.24,0002.24
2023-10-09 08:08:00,SystemResetWarning,0831.1,5.00,000.00,029.0,027.4,000.0,037.4,030.5,12.2,0000.0,0010.93,0003.23,0002.24
2023-10-09 08:09:00,SystemResetWarning,0831.2,5.01,000.00,029.0,027.4,000.0,037.4,030.5,12.2,0000.0,0010.51,0003.23,0002.27
2023-10-09 08:10:00,SystemResetWarning,0831.2,5.01,000.00,029.0,027.4,000.0,037.4,030.5,12.2,0000.0,0010.50,0003.24,0002.28
2023-10-09 08:11:00,SystemResetWarning,0831.1,4.99,000.00,029.0,027.4,000.0,037.4,030.5,12.2,0000.0,0010.35,0003.21,0002.27
2023-10-09 08:12:00,SystemResetWarning,0831.1,4.99,000.00,029.0,027.4,000.0,037.4,030.5,12.2,0000.0,0010.40,0003.25,0002.28
2023-10-09 08:13:00,SystemResetWarning,0831.1,5.00,000.00,029.0,027.4,000.0,037.4,030.5,12.2,0000.0,0009.90,0003.29,0002.29
2023-10-09 08:14:00,SystemResetWarning,0831.0,5.01,000.00,029.0,027.4,000.0,037.4,030.5,12.2,0000.0,0009.77,0003.34,0002.28
2023-10-09 08:15:00,SystemResetWarning,0831.0,5.01,000.00,028.9,027.4,000.0,037.4,030.5,12.2,0000.0,0009.17,0003.35,0002.28
2023-10-09 08:16:00,SystemResetWarning,0831.0,5.00,000.00,028.9,027.4,000.0,037.4,030.5,12.2,0000.0,0008.87,0003.34,0002.26
2023-10-09 08:17:00,SystemResetWarning,0831.0,5.01,000.00,028.9,027.4,000.0,037.4,030.5,12.2,0000.0,0008.65,0003.32,0002.25
2023-10-09 08:18:00,SystemResetWarning,0830.9,5.00,000.00,028.9,027.4,000.0,037.4,030.5,12.2,0000.0,0009.00,0003.32,0002.25
2023-10-09 08:19:00,SystemResetWarning,0830.9,4.99,000.00,028.9,027.4,000.0,037.4,030.5,12.1,0000.0,0009.19,0003.31,0002.24
2023-10-09 08:20:00,SystemResetWarning,0830.9,4.99,000.00,028.9,027.4,000.0,037.4,030.5,12.1,0000.0,0009.37,0003.32,0002.24
2023-10-09 08:21:00,SystemResetWarning,0830.9,4.99,000.00,028.9,027.4,000.0,037.4,030.5,12.1,0000.0,0009.42,0003.29,0002.22
2023-10-09 08:22:00,SystemResetWarning,0830.9,5.01,000.00,028.9,027.4,000.0,037.4,030.6,12.2,0000.0,0009.48,0003.29,0002.23
2023-10-09 08:23:00,SystemResetWarning,0830.9,5.00,000.00,028.9,027.4,000.0,037.4,030.6,12.1,0000.0,0009.50,0003.26,0002.22
2023-10-09 08:24:00,SystemResetWarning,0830.9,5.01,000.00,028.9,027.4,000.0,037.4,030.5,12.1,0000.0,0009.84,0003.22,0002.20
2023-10-09 08:25:00,SystemResetWarning,0830.9,5.00,000.00,028.9,027.4,000.0,037.4,030.5,12.1,0000.0,0009.68,0003.19,0002.19
2023-10-09 08:26:00,SystemResetWarning,0830.9,4.99,000.00,029.0,027.4,000.0,037.4,030.5,12.1,0000.0,0009.55,0003.17,0002.19
2023-10-09 08:27:00,SystemResetWarning,0830.9,4.99,000.00,028.9,027.4,000.0,037.4,030.5,12.1,0000.0,0010.06,0003.17,0002.19
2023-10-09 08:28:00,SystemResetWarning,0830.9,5.00,000.00,029.0,027.4,000.0,037.4,030.5,12.1,0000.0,0009.69,0003.17,0002.19
2023-10-09 08:29:00,SystemResetWarning,0830.9,5.01,000.00,029.0,027.4,000.0,037.4,030.5,12.1,0000.0,0009.54,0003.19,0002.19
2023-10-09 08:30:00,SystemResetWarning,0830.9,5.01,000.00,028.9,027.4,000.0,037.4,030.5,12.1,0000.0,0008.94,0003.23,0002.19
2023-10-09 08:31:00,SystemResetWarning,0830.9,5.01,000.00,028.9,027.4,000.0,037.4,030.5,12.1,0000.0,0008.64,0003.21,0002.18
2023-10-09 08:32:00,SystemResetWarning,0830.9,5.00,000.00,028.9,027.4,000.0,037.4,030.5,12.1,0000.0,0008.65,0003.21,0002.16
2023-10-09 08:33:00,SystemResetWarning,0830.9,5.00,000.00,028.9,027.4,000.0,037.4,030.5,12.0,0000.0,0008.53,0003.20,0002.14
2023-10-09 08:34:00,SystemResetWarning,0830.9,5.00,000.00,028.9,027.4,000.0,037.4,030.5,12.1,0000.0,0008.32,0003.20,0002.15
2023-10-09 08:35:00,SystemResetWarning,0830.8,5.00,000.00,028.9,027.4,000.0,037.4,030.5,12.1,0000.0,0008.27,0003.26,0002.16
2023-10-09 08:36:00,SystemResetWarning,0830.8,5.00,000.00,028.9,027.4,000.0,037.4,030.5,12.0,0000.0,0008.68,0003.24,0002.16
2023-10-09 08:37:00,SystemResetWarning,0830.8,5.00,000.00,028.9,027.4,000.0,037.4,030.5,12.0,0000.0,0008.53,0003.23,0002.14
2023-10-09 08:38:00,SystemResetWarning,0830.8,4.99,000.00,028.9,027.4,000.0,037.4,030.5,12.1,0000.0,0007.87,0003.20,0002.13
2023-10-09 08:39:00,SystemResetWarning,0830.8,4.99,000.00,028.9,027.4,000.0,037.4,030.5,12.1,0000.0,0007.83,0003.19,0002.14
2023-10-09 08:40:00,SystemResetWarning,0830.8,5.00,000.00,028.9,027.4,000.0,037.4,030.5,12.1,0000.0,0007.77,0003.17,0002.15
2023-10-09 08:41:00,SystemResetWarning,0830.8,5.00,000.00,028.9,027.4,000.0,037.4,030.5,12.1,0000.0,0008.52,0003.17,0002.15
2023-10-09 08:42:00,SystemResetWarning,0830.8,5.00,000.00,028.9,027.4,000.0,037.4,030.5,12.1,0000.0,0008.65,0003.20,0002.16
2023-10-09 08:43:00,SystemResetWarning,0830.8,5.00,000.00,028.9,027.4,000.0,037.4,030.5,12.1,0000.0,0008.56,0003.18,0002.17
2023-10-09 08:44:00,SystemResetWarning,0830.8,5.00,000.00,028.9,027.4,000.0,037.4,030.5,12.1,0000.0,0008.99,0003.20,0002.18
2023-10-09 08:45:00,SystemResetWarning,0830.7,5.01,000.00,028.9,027.4,000.0,037.4,030.5,12.1,0000.0,0009.43,0003.22,0002.18
2023-10-09 08:46:00,SystemResetWarning,0830.7,5.00,000.00,028.9,027.4,000.0,037.4,030.5,12.1,0000.0,0009.38,0003.15,0002.17
2023-10-09 08:47:00,SystemResetWarning,0830.7,5.00,000.00,028.9,027.4,000.0,037.4,030.5,12.1,0000.0,0009.39,0003.14,0002.17
2023-10-09 08:48:00,SystemResetWarning,0830.7,5.00,000.00,028.9,027.4,000.0,037.4,030.5,12.1,0000.0,0009.93,0003.17,0002.18
2023-10-09 08:49:00,SystemResetWarning,0830.7,5.00,000.00,028.9,027.4,000.0,037.4,030.5,12.1,0000.0,0010.04,0003.18,0002.18
2023-10-09 08:50:00,SystemResetWarning,0830.7,5.00,000.00,028.9,027.4,000.0,037.4,030.5,12.1,0000.0,0010.44,0003.19,0002.17
2023-10-09 08:51:00,SystemResetWarning,0830.7,5.00,000.00,028.9,027.4,000.0,037.4,030.5,12.1,0000.0,0010.49,0003.16,0002.15
2023-10-09 08:52:00,SystemResetWarning,0830.7,5.00,000.00,028.9,027.4,000.0,037.4,030.5,12.1,0000.0,0009.97,0003.15,0002.14
2023-10-09 08:53:00,SystemResetWarning,0830.7,5.00,000.00,028.9,027.4,000.0,037.4,030.5,12.1,0000.0,0009.95,0003.11,0002.12
2023-10-09 08:54:00,SystemResetWarning,0830.6,5.00,000.00,028.9,027.4,000.0,037.4,030.5,12.1,0000.0,0010.23,0003.12,0002.11
2023-10-09 08:55:00,SystemResetWarning,0830.6,5.00,000.00,028.9,027.4,000.0,037.4,030.5,12.1,0000.0,0010.00,0003.12,0002.11
2023-10-09 08:56:00,SystemResetWarning,0830.6,5.01,000.00,028.9,027.4,000.0,037.4,030.5,12.1,0000.0,0009.83,0003.11,0002.11
2023-10-09 08:57:00,SystemResetWarning,0830.6,5.00,000.00,028.9,027.4,000.0,037.4,030.5,12.1,0000.0,0009.52,0003.16,0002.12
2023-10-09 08:58:00,SystemResetWarning,0830.6,5.00,000.00,028.9,027.4,000.0,037.4,030.5,12.1,0000.0,0009.58,0003.21,0002.13
2023-10-09 08:59:00,SystemResetWarning,0830.6,5.00,000.00,028.9,027.4,000.0,037.4,030.5,12.1,0000.0,0009.44,0003.22,0002.13
